[[{"header":{"parameterUnit":"m.s-1","parameterCategory":1,"la1":30.2991,"la2":30.254,"lo1":-89.0895,"lo2":-89.0444,"dy":0.0017,"dx":0.0017,"nx":28,"ny":28,"refTime":"2024-12-12T03:00:00:Z","depth":0,"parameterNumber":2,"parameterNumberName":"U-component_of_WINDS"},"data":[0,0,0,0,0,0,0,0,0,0,0,0,0,0,0,0,0,0,0,0,0,0,0,0,0,0,0,0,0,0,0,0,0,0,0,0,0,0,0,0,0,0,0,0,0,0,0,0,0,0,0,0,0,0,0,0,0,0,-6.1318,-6.1318,0,-6.1299,-6.1299,-6.1298,-6.1062,-6.1056,-6.105,-6.1044,-6.1029,-6.1034,-6.1039,0,0,0,0,0,0,0,0,0,0,0,0,0,-6.1154,-6.1158,-6.1318,-6.1318,-6.1318,-6.1299,-6.1299,-6.1298,-6.1063,-6.1055,-6.1048,-6.1041,-6.1027,-6.1033,-6.1039,0,0,0,0,0,0,0,0,0,0,0,0,0,-6.119,-6.116,-6.1318,-6.1198,-6.1187,-6.1299,-6.1299,-6.1298,-6.1064,-6.1055,-6.1046,-6.1038,-6.1025,-6.1033,-6.104,-6.1268,0,0,-6.1064,-6.1067,0,0,0,0,0,0,0,0,-6.1188,-6.1196,-6.1216,-6.1206,-6.1194,-6.1173,-6.1235,-6.1288,-6.1067,-6.1111,-6.1044,-6.1033,-6.1084,-6.1087,-6.1103,-6.1267,-6.1266,-6.1065,-6.1069,-6.1073,-6.1075,0,0,0,0,0,0,0,-6.1186,-6.1195,-6.131,-6.1216,-6.1203,-6.1146,-6.1141,-6.1244,-6.1148,-6.1106,-6.1089,-6.109,-6.1077,-6.1096,-6.1101,-6.1266,-6.1064,-6.1071,-6.1076,-6.1079,-6.1615,-6.1625,0,0,0,0,0,0,-6.1199,-6.1195,-6.1311,-6.131,-6.1169,-6.1156,-6.115,-6.1189,-6.1147,-6.1131,-6.1098,-6.1079,-6.1087,-6.1092,-6.1099,-6.1363,-6.1073,-6.108,-6.1084,-6.1606,-6.1618,-6.1628,0,0,0,0,0,0,-6.1197,-6.1212,-6.1312,-6.1248,-6.1256,-6.1168,-6.1214,-6.1194,-6.1212,-6.114,-6.1122,-6.1135,-6.108,-6.1088,-6.1227,-6.1359,-6.1083,-6.109,-6.1595,-6.161,-6.1623,-6.1892,0,0,0,0,0,0,-6.1193,-6.1212,-6.1297,-6.1251,-6.126,-6.144,-6.1222,-6.12,-6.1226,-6.1201,-6.117,-6.1156,-6.1074,-6.1217,-6.1235,-6.1365,-6.1096,-6.1582,-6.1601,-6.1618,-6.1871,-6.1914,-6.1951,0,0,0,0,0,-6.1188,-6.1375,-6.1303,-6.1318,-6.1364,-6.1448,-6.1453,-6.1354,-6.1237,-6.1323,-6.1276,-6.1157,-6.1342,-6.1233,-6.1251,-6.1386,-6.1574,-6.1596,-6.1617,-6.1853,-6.1906,-6.195,0,0,0,0,0,0,-6.1441,-6.1367,-6.1286,-6.1463,-6.1464,-6.1408,-6.1512,-6.1412,-6.1447,-6.1422,-6.1298,-6.1293,-6.1452,-6.1432,-6.1312,-6.1603,-6.1437,-6.1463,-6.1611,-6.166,-6.1699,-6.1701,-6.1103,0,0,0,0,0,-6.1517,-6.1589,-6.1521,-6.1685,-6.1689,-6.1601,-6.1634,-6.1557,-6.1553,-6.1552,-6.1515,-6.1517,-6.1575,-6.1616,-6.1665,-6.1867,-6.1857,-6.1968,-6.2008,-6.2041,-6.2066,-6.2171,-6.222,-6.1699,-6.1699,-6.1698,0,0,-6.1675,-6.1644,-6.1698,-6.1735,-6.1725,-6.1805,-6.1603,-6.1695,-6.1753,-6.1566,-6.1695,-6.1669,-6.1662,-6.1833,-6.1907,-6.1822,-6.2207,-6.2068,-6.2095,-6.2102,-6.2198,-6.2248,-6.2292,-6.1714,-6.1711,-6.1709,0,0,-6.2004,-6.1988,-6.2121,-6.2116,-6.2105,-6.2045,-6.2078,-6.2037,-6.2012,-6.2138,-6.2,-6.2067,-6.217,-6.2171,-6.2185,-6.2515,-6.2407,-6.2534,-6.2743,-6.2847,-6.2888,-6.2924,-6.3042,-6.3086,-6.2559,-6.256,-6.256,0,-6.2203,-6.2316,-6.2204,-6.2305,-6.2326,-6.2158,-6.2294,-6.2295,-6.2301,-6.232,-6.2224,-6.2349,-6.2333,-6.2502,-6.2582,-6.2599,-6.2633,-6.2538,-6.2891,-6.2926,-6.2957,-6.3069,-6.3114,-6.2575,-6.2573,-6.2572,-6.257,0,-6.2561,-6.2642,-6.2751,-6.276,-6.2793,-6.2911,-6.2818,-6.2865,-6.2785,-6.2736,-6.2868,-6.2842,-6.2884,-6.2918,-6.2842,-6.3077,-6.3025,-6.2912,-6.2743,-6.3025,-6.3127,-6.3169,-6.2597,-6.2592,-6.2587,-6.2583,0,0,-6.305,-6.2994,-6.3036,-6.3038,-6.3013,-6.3073,-6.3184,-6.3223,-6.3266,-6.3276,-6.3367,-6.3457,-6.3352,-6.3369,-6.3291,-6.3383,-6.3646,-6.3258,-6.3256,-6.3332,-6.3905,-6.399,-6.4041,-6.3574,-6.3582,-6.3588,-6.3905,0,-6.3367,-6.3552,-6.3454,-6.3653,-6.3726,-6.3568,-6.3664,-6.3661,-6.3618,-6.3675,-6.3627,-6.3694,-6.355,-6.3559,-6.3642,-6.3597,-6.376,-6.3572,-6.3658,-6.3663,-6.3666,-6.4095,-6.4185,-6.4487,-6.3945,-6.3951,-6.3956,0,-6.3762,-6.3788,-6.3994,-6.3954,-6.3981,-6.407,-6.4098,-6.4153,-6.4146,-6.4108,-6.4127,-6.4027,-6.4134,-6.3966,-6.4112,-6.3987,-6.4016,-6.3999,-6.4008,-6.4013,-6.3828,-6.4112,-6.458,-6.4626,-6.4018,-6.4013,-6.4009,0,-6.4099,-6.4185,-6.4318,-6.4325,-6.4282,-6.4348,-6.4334,-6.4317,-6.4347,-6.4372,-6.439,-6.4428,-6.4449,-6.4481,-6.4394,-6.428,-6.4553,-6.4377,-6.4526,-6.4529,-6.4591,-6.4589,-6.5072,-6.461,-6.4609,-6.4609,-6.4608,0,-6.4464,-6.4597,-6.4469,-6.4552,-6.4695,-6.4582,-6.4728,-6.4696,-6.4683,-6.4757,-6.4623,-6.4697,-6.4577,-6.4639,-6.4572,-6.4704,-6.4715,-6.4688,-6.4669,-6.4701,-6.4705,-6.4719,-6.4696,-6.462,-6.4618,-6.4616,-6.4613,0,-6.4865,-6.4784,-6.492,-6.4868,-6.4858,-6.4967,-6.4923,-6.4998,-6.4945,-6.5042,-6.5058,-6.4976,-6.5042,-6.4958,-6.5017,-6.4972,-6.5152,-6.5101,-6.5155,-6.514,-6.5294,-6.5281,-6.5803,-6.5866,-6.5365,-6.537,-6.5374,0,-6.5103,-6.5201,-6.516,-6.5199,-6.5192,-6.5258,-6.5287,-6.518,-6.5216,-6.5214,-6.529,-6.5344,-6.5381,-6.5494,-6.5441,-6.5485,-6.5435,-6.5615,-6.5441,-6.5469,-6.5438,-6.5434,-6.5443,-6.5651,-6.5657,-6.5662,-6.5666,0,-6.5536,-6.5491,-6.5537,-6.5571,-6.5609,-6.5631,-6.5642,-6.5683,-6.557,-6.5618,-6.5682,-6.5712,-6.577,-6.5826,-6.5856,-6.5841,-6.5737,-6.5721,-6.5758,-6.5792,-6.5819,-6.5807,-6.5252,-6.571,-6.5705,-6.5702,-6.57,-6.5698,-6.5862,-6.5942,-6.5925,-6.5982,-6.5979,-6.5993,-6.606,-6.6016,-6.6067,-6.6106,-6.6039,-6.6122,-6.6111,-6.614,-6.6138,-6.6202,-6.6124,-6.6177,-6.6191,-6.6206,-6.623,-6.5808,-6.6207,-6.6205,-6.6204,-6.6203,-6.6202,0,-6.6288,-6.6269,-6.6322,-6.6342,-6.6387,-6.6282,-6.6289,-6.6334,-6.6407,-6.6406,-6.6445,-6.652,-6.6574,-6.6525,-6.6569,-6.6629,-6.6582,-6.6644,-6.6639,-6.6638,-6.6296,-6.626,-6.6682,-6.6682,-6.6682,-6.6682,-6.6681,-6.6681,-6.6515,-6.6644,-6.6598,-6.6724,-6.6704,-6.6782,-6.6796,-6.6808,-6.6806,-6.6896,-6.6939,-6.6906,-6.6886,-6.6927,-6.6972,-6.6956,-6.6979,-6.7059,-6.7027,-6.6709,-6.6662,-6.6617,-6.6582,-6.7065,-6.7065,-6.7363,-6.7366,-6.7368]},{"header":{"parameterUnit":"m.s-1","parameterCategory":1,"la1":30.2991,"la2":30.254,"lo1":-89.0895,"lo2":-89.0444,"dy":0.0017,"dx":0.0017,"nx":28,"ny":28,"refTime":"2024-12-12T03:00:00:Z","depth":0,"parameterNumber":3,"parameterNumberName":"V-component_of_WINDS"},"data":[0,0,0,0,0,0,0,0,0,0,0,0,0,0,0,0,0,0,0,0,0,0,0,0,0,0,0,0,0,0,0,0,0,0,0,0,0,0,0,0,0,0,0,0,0,0,0,0,0,0,0,0,0,0,0,0,0,0,-2.0314,-2.0314,0,-2.0333,-2.0334,-2.0334,-2.0324,-2.0324,-2.0323,-2.0323,-2.0342,-2.0343,-2.0344,0,0,0,0,0,0,0,0,0,0,0,0,0,-2.0264,-2.0265,-2.0314,-2.0314,-2.0314,-2.0333,-2.0334,-2.0334,-2.0324,-2.0324,-2.0323,-2.0323,-2.0342,-2.0343,-2.0344,0,0,0,0,0,0,0,0,0,0,0,0,0,-2.0285,-2.0266,-2.0314,-2.0312,-2.0312,-2.0333,-2.0334,-2.0334,-2.0325,-2.0324,-2.0323,-2.0322,-2.0341,-2.0343,-2.0344,-2.0368,0,0,-2.0348,-2.0349,0,0,0,0,0,0,0,0,-2.0284,-2.0287,-2.0312,-2.0312,-2.0312,-2.0326,-2.0323,-2.0345,-2.0325,-2.032,-2.0323,-2.0322,-2.0337,-2.0339,-2.0344,-2.0369,-2.037,-2.0349,-2.0349,-2.035,-2.0351,0,0,0,0,0,0,0,-2.0283,-2.0286,-2.0321,-2.0312,-2.0312,-2.0309,-2.0311,-2.0327,-2.0332,-2.032,-2.0319,-2.0322,-2.0337,-2.0343,-2.0344,-2.037,-2.0349,-2.035,-2.0351,-2.0351,-2.0412,-2.0413,0,0,0,0,0,0,-2.0281,-2.0285,-2.0321,-2.0322,-2.0296,-2.031,-2.0313,-2.0322,-2.0332,-2.0333,-2.0323,-2.0321,-2.0341,-2.0343,-2.0345,-2.0372,-2.035,-2.0351,-2.0352,-2.0412,-2.0413,-2.0413,0,0,0,0,0,0,-2.028,-2.0285,-2.032,-2.0303,-2.0307,-2.0312,-2.0322,-2.0323,-2.0329,-2.0334,-2.0335,-2.0328,-2.034,-2.0343,-2.0362,-2.0373,-2.0352,-2.0353,-2.0411,-2.0412,-2.0413,-2.0427,0,0,0,0,0,0,-2.0279,-2.0285,-2.0295,-2.0304,-2.0308,-2.0337,-2.0323,-2.0324,-2.0331,-2.033,-2.0339,-2.034,-2.034,-2.036,-2.0363,-2.0374,-2.0355,-2.041,-2.0411,-2.0413,-2.0426,-2.0429,-2.0431,0,0,0,0,0,-2.0277,-2.0298,-2.0295,-2.03,-2.0321,-2.0338,-2.0341,-2.0341,-2.0332,-2.0342,-2.0345,-2.034,-2.0371,-2.0362,-2.0366,-2.0377,-2.0409,-2.0411,-2.0412,-2.0424,-2.0428,-2.0431,0,0,0,0,0,0,-2.0291,-2.03,-2.0296,-2.0321,-2.0329,-2.0337,-2.0349,-2.0345,-2.0355,-2.0353,-2.0352,-2.0354,-2.0373,-2.0377,-2.0367,-2.0399,-2.0388,-2.0391,-2.0396,-2.04,-2.0402,-2.0401,-2.0356,0,0,0,0,0,-2.0297,-2.031,-2.0317,-2.0338,-2.0342,-2.0344,-2.0352,-2.0351,-2.0359,-2.0362,-2.0367,-2.0374,-2.0385,-2.0393,-2.0404,-2.0426,-2.0427,-2.0436,-2.0438,-2.044,-2.0443,-2.0452,-2.0456,-2.0419,-2.0419,-2.0419,0,0,-2.0309,-2.0315,-2.0324,-2.0341,-2.0347,-2.0359,-2.0348,-2.0362,-2.0371,-2.0364,-2.0382,-2.0385,-2.0393,-2.0413,-2.0422,-2.0417,-2.0453,-2.0443,-2.0444,-2.0445,-2.0454,-2.0458,-2.0461,-2.042,-2.042,-2.042,0,0,-2.0338,-2.0345,-2.0362,-2.0367,-2.0376,-2.0377,-2.0381,-2.0389,-2.0391,-2.0409,-2.0403,-2.0413,-2.0433,-2.0438,-2.0443,-2.0471,-2.0466,-2.0474,-2.0488,-2.0498,-2.05,-2.0503,-2.0511,-2.0514,-2.0476,-2.0476,-2.0476,0,-2.0352,-2.0372,-2.0371,-2.0385,-2.0392,-2.0385,-2.0401,-2.0407,-2.0419,-2.0423,-2.0417,-2.044,-2.0445,-2.0465,-2.0471,-2.0476,-2.0479,-2.0473,-2.05,-2.0503,-2.0505,-2.0513,-2.0516,-2.0477,-2.0477,-2.0477,-2.0477,0,-2.0387,-2.0401,-2.0413,-2.0424,-2.0432,-2.0448,-2.0447,-2.0455,-2.0453,-2.0454,-2.047,-2.0476,-2.0487,-2.0491,-2.049,-2.051,-2.0507,-2.05,-2.0489,-2.0509,-2.0516,-2.052,-2.0479,-2.0478,-2.0478,-2.0478,0,0,-2.0427,-2.0435,-2.044,-2.0443,-2.0451,-2.0461,-2.0475,-2.0485,-2.0491,-2.0499,-2.0509,-2.0525,-2.0518,-2.0524,-2.0523,-2.0531,-2.055,-2.0524,-2.0524,-2.0527,-2.0571,-2.0575,-2.0578,-2.0546,-2.0547,-2.0547,-2.0569,0,-2.0455,-2.0479,-2.0478,-2.05,-2.0511,-2.0504,-2.0516,-2.0521,-2.0522,-2.0531,-2.0532,-2.0542,-2.0534,-2.0537,-2.0545,-2.0546,-2.0558,-2.0544,-2.0555,-2.0555,-2.0552,-2.0582,-2.0587,-2.0608,-2.0572,-2.0573,-2.0573,0,-2.0491,-2.0499,-2.0523,-2.0527,-2.0531,-2.0542,-2.055,-2.0559,-2.0564,-2.0563,-2.0569,-2.0565,-2.0577,-2.0566,-2.0581,-2.0572,-2.0576,-2.0576,-2.0577,-2.0578,-2.0565,-2.0582,-2.0614,-2.0617,-2.0578,-2.0578,-2.0577,0,-2.0515,-2.0532,-2.0548,-2.0551,-2.0557,-2.0564,-2.0566,-2.0571,-2.0576,-2.0582,-2.0585,-2.0593,-2.0597,-2.0603,-2.0601,-2.0593,-2.0616,-2.0605,-2.0615,-2.0615,-2.062,-2.062,-2.0652,-2.0624,-2.0624,-2.0624,-2.0624,0,-2.0547,-2.0561,-2.0558,-2.0568,-2.0583,-2.058,-2.0594,-2.0596,-2.0599,-2.0608,-2.0602,-2.061,-2.0607,-2.0614,-2.0612,-2.0624,-2.0627,-2.0626,-2.0625,-2.0626,-2.0626,-2.0628,-2.0626,-2.0625,-2.0625,-2.0625,-2.0624,0,-2.0576,-2.0575,-2.0592,-2.0594,-2.0595,-2.0606,-2.0608,-2.0616,-2.0616,-2.0626,-2.0629,-2.0628,-2.0636,-2.0634,-2.0644,-2.0642,-2.0657,-2.0655,-2.0655,-2.0654,-2.0664,-2.0662,-2.0698,-2.0702,-2.0672,-2.0673,-2.0673,0,-2.0596,-2.0606,-2.061,-2.0615,-2.0618,-2.0626,-2.0631,-2.0628,-2.0633,-2.0638,-2.0645,-2.0652,-2.0658,-2.0671,-2.0671,-2.0677,-2.0674,-2.0686,-2.0675,-2.0675,-2.0673,-2.0672,-2.0672,-2.0689,-2.0689,-2.0689,-2.0689,0,-2.063,-2.0628,-2.0636,-2.0642,-2.0648,-2.0653,-2.0658,-2.0662,-2.0659,-2.0664,-2.0672,-2.0677,-2.0685,-2.0692,-2.0697,-2.0698,-2.0693,-2.0693,-2.0695,-2.0696,-2.0695,-2.0694,-2.066,-2.0692,-2.0692,-2.0692,-2.0691,-2.0691,-2.0654,-2.0662,-2.0665,-2.0673,-2.0676,-2.0679,-2.0686,-2.0686,-2.0693,-2.0699,-2.0696,-2.0705,-2.0707,-2.0713,-2.0715,-2.0721,-2.0716,-2.072,-2.0721,-2.0722,-2.0722,-2.0695,-2.0722,-2.0722,-2.0722,-2.0722,-2.0722,0,-2.0687,-2.0688,-2.0695,-2.07,-2.0706,-2.07,-2.0704,-2.0708,-2.0716,-2.0719,-2.0724,-2.0732,-2.0738,-2.0737,-2.0742,-2.0747,-2.0744,-2.0748,-2.0747,-2.0747,-2.0727,-2.0724,-2.075,-2.075,-2.075,-2.075,-2.075,-2.075,-2.0704,-2.0717,-2.0715,-2.0728,-2.0729,-2.0737,-2.0739,-2.0742,-2.0743,-2.0752,-2.0757,-2.0756,-2.0757,-2.0762,-2.0766,-2.0766,-2.0767,-2.0772,-2.0771,-2.0752,-2.0749,-2.0746,-2.0743,-2.0773,-2.0773,-2.079,-2.079,-2.079]}]]